This is the latest recevied weather packets stored in our database for station/object EA1ZE. If no packets are shown the sender has not sent any weather packets the latest 10 day(s).
| Time | Temp. | Humidity | Pressure | Rain* | Wind** | Luminosity | Snow |
|---|---|---|---|---|---|---|---|
| 1777666537 | 19.44° C | 55% | 1016.5 hPa | 0 mm | - | - | - |
| 1777665639 | 19.44° C | 54% | 1016.5 hPa | 0 mm | - | - | - |
| 1777664739 | 20° C | 52% | 1016.3 hPa | 0 mm | - | - | - |
| 1777663837 | 20.56° C | 52% | 1016.2 hPa | 0 mm | - | - | - |
| 1777662950 | 20.56° C | 47% | 1016.3 hPa | 0 mm | - | - | - |
| 1777662044 | 21.11° C | 46% | 1016.3 hPa | 0 mm | - | - | - |
| 1777661134 | 21.67° C | 45% | 1016.2 hPa | 0 mm | - | - | - |
| 1777660234 | 21.67° C | 44% | 1016.2 hPa | 0 mm | - | - | - |
| 1777659337 | 22.22° C | 44% | 1016.3 hPa | 0 mm | - | - | - |
| 1777658440 | 22.22° C | 42% | 1016 hPa | 0 mm | - | - | - |
| 1777657532 | 22.22° C | 41% | 1016.1 hPa | 0 mm | - | - | - |
| 1777656650 | 22.78° C | 40% | 1016.1 hPa | 0 mm | - | - | - |
| 1777655735 | 23.33° C | 39% | 1016.1 hPa | 0 mm | - | - | - |
| 1777654829 | 23.33° C | 38% | 1016.1 hPa | 0 mm | - | - | - |
| 1777653931 | 23.33° C | 38% | 1016.2 hPa | 0 mm | - | - | - |
| 1777653028 | 23.33° C | 36% | 1016.2 hPa | 0 mm | - | - | - |
| 1777652126 | 22.78° C | 37% | 1016.4 hPa | 0 mm | - | - | - |
| 1777651224 | 23.33° C | 37% | 1016.5 hPa | 0 mm | - | - | - |
| 1777650324 | 22.78° C | 38% | 1016.4 hPa | 0 mm | - | - | - |
| 1777649445 | 22.78° C | 41% | 1016.6 hPa | 0 mm | - | - | - |
| 1777648523 | 22.78° C | 40% | 1016.8 hPa | 0 mm | - | - | - |
| 1777647619 | 22.78° C | 41% | 1016.8 hPa | 0 mm | - | - | - |
| 1777646727 | 22.22° C | 40% | 1016.8 hPa | 0 mm | - | - | - |
| 1777645821 | 22.22° C | 41% | 1017 hPa | 0 mm | - | - | - |
| 1777644917 | 22.22° C | 41% | 1017.2 hPa | 0 mm | - | - | - |
* Rain latest hour (hover to see other rain measurements)
** Current wind speed in m/s (hover to see current wind gust speed)